Wind_Speed
72 69 65 73 74 73 79 71 64 64 68 68 60 58 57 57 54 53 57 59 59 59 57 55 60 62 63 65 64 65 68 73 75 73 74 78 79 78 79 81 81 82 84 86
56 56 62 64 68 69 76 73 65 60 63 66 63 55 57 61 59 57 55 56 59 59 61 62 64 65 66 68 67 66 67 69 69 72 76 77 79 80 82 83 84 84 86 88
42 49 55 60 63 65 70 72 67 61 60 64 65 62 58 59 56 56 58 58 56 54 56 60 62 62 63 63 61 61 66 68 71 72 75 77 80 81 83 84 85 87 89 91
37 44 49 58 60 62 66 71 69 62 61 66 66 62 62 63 61 57 60 60 60 59 58 61 61 63 65 65 64 66 68 70 71 74 77 80 82 84 87 90 92 95 96 98
30 40 48 57 60 62 67 68 69 68 64 63 64 62 60 61 62 62 63 64 61 60 63 65 66 67 69 70 70 71 72 74 77 79 82 84 86 87 89 91 92 94 97 98
26 36 46 57 59 59 63 69 71 70 63 55 59 58 57 59 63 64 63 62 61 61 64 65 66 67 68 69 71 72 74 76 77 80 83 85 87 88 90 93 94 96 96 97
21 33 44 56 56 58 63 69 68 65 55 47 55 48 51 58 62 64 63 64 65 65 64 65 65 67 69 71 72 74 76 78 81 83 84 87 89 90 93 95 96 98 100 103
18 28 42 51 52 55 60 63 62 60 55 53 57 48 54 58 62 62 62 62 62 62 62 63 66 67 69 71 73 76 77 79 83 86 89 90 91 92 94 97 100 102 104 106
17 28 38 48 50 50 55 56 58 58 57 56 54 53 58 59 59 60 60 61 61 62 64 65 67 70 71 72 73 77 81 83 86 87 87 89 92 94 97 99 102 104 101 101
20 26 37 46 50 48 49 55 54 56 58 58 56 57 60 61 59 59 60 61 62 64 64 65 68 71 73 75 78 80 83 85 86 87 90 92 95 98 101 100 96 99 102 104
14 21 31 41 49 50 48 51 53 54 57 59 59 61 62 61 60 59 60 61 62 64 66 69 72 75 77 79 81 82 82 84 87 91 94 96 98 96 93 96 98 101 106 109
5 13 25 37 47 53 51 49 50 52 55 55 59 64 61 60 59 60 62 63 65 67 70 73 74 76 78 78 78 80 83 86 89 92 93 90 89 92 94 98 103 107 107 107
1 5 8 29 41 50 54 53 52 53 53 52 53 57 57 59 60 62 62 63 63 65 66 67 69 70 72 74 78 81 84 86 87 84 85 89 92 96 99 100 101 104 107 112
1 6 11 20 24 35 47 53 54 52 51 50 50 52 53 53 54 55 57 59 60 60 60 62 65 69 72 75 78 78 77 77 81 85 89 91 94 95 99 102 104 111 119 124
1 5 9 14 20 26 33 42 48 51 52 52 51 52 52 52 53 53 54 55 57 59 62 65 65 66 67 66 67 71 76 79 81 84 87 92 96 100 104 112 117 123 125 126
3 7 9 9 15 18 25 31 36 42 47 51 53 55 54 55 55 55 56 58 57 56 55 54 53 54 58 63 69 72 73 76 81 86 89 93 98 105 111 115 121 123 120 119
4 3 8 10 13 11 13 19 23 28 32 37 41 42 44 46 45 43 41 39 38 39 41 45 51 56 60 60 64 70 75 80 85 87 91 97 101 108 115 118 114 113 111 105
10 7 6 6 8 9 13 12 12 14 17 18 18 18 19 21 22 24 27 31 35 39 45 50 51 51 56 63 70 73 78 84 90 94 101 106 109 111 114 108 104 100 96 91
14 11 13 11 10 9 10 11 10 10 10 12 14 15 17 19 21 26 30 36 40 43 42 44 47 53 60 65 73 79 86 92 95 100 105 109 110 108 102 96 92 87 82 77
13 13 12 11 9 9 12 12 12 12 12 13 13 15 18 22 26 30 35 35 32 35 40 44 51 59 68 74 79 85 91 95 100 104 105 106 103 96 90 86 80 75 68 62
15 15 14 13 10 10 12 10 10 11 12 14 17 21 23 25 29 26 25 27 33 38 43 51 58 67 73 80 85 90 94 101 104 108 105 99 92 85 79 74 67 61 55 49
20 19 18 17 14 13 12 11 11 15 18 20 22 23 24 21 19 21 24 30 36 43 50 56 63 71 78 85 90 93 101 104 106 104 97 89 81 74 68 61 53 47 41 36
23 22 20 18 15 15 13 14 17 20 21 23 22 19 15 15 19 24 28 36 41 46 54 61 69 76 84 90 92 99 102 107 104 94 85 78 70 63 55 48 41 35 31 28
26 25 23 22 18 19 19 17 20 22 22 20 16 12 13 17 23 27 33 39 47 53 58 66 73 82 89 95 99 103 106 103 92 81 74 66 60 51 44 38 33 27 24 22
31 29 25 25 20 21 19 21 21 21 16 14 10 10 14 20 24 29 37 44 49 55 62 70 80 88 95 98 101 103 101 90 79 71 64 57 48 42 35 29 24 21 20 20
35 32 27 26 20 22 22 22 22 16 15 9 8 12 18 22 28 35 39 45 53 60 66 76 84 91 99 99 103 101 91 78 70 61 54 47 40 32 25 21 19 18 21 23
Wind_Direction
255 252 248 242 242 240 236 236 234 234 235 235 234 234 231 234 238 241 241 244 248 251 253 253 255 257 258 262 263 267 269 272 274 275 277 281 282 284 284 284 285 284 285 283
252 244 236 231 233 232 231 229 230 232 233 233 230 228 231 234 237 241 243 247 249 253 254 258 260 262 263 265 268 269 270 273 274 275 278 280 281 282 282 283 284 284 284 285
249 236 227 220 224 226 226 225 228 229 231 230 231 228 228 232 236 241 243 246 249 250 253 256 259 262 264 269 271 270 271 273 276 278 279 281 282 282 282 282 283 283 285 285
240 228 221 213 214 220 220 220 224 226 231 228 230 230 232 232 234 240 244 247 249 251 254 257 259 262 265 268 269 269 270 275 277 278 278 278 278 279 281 282 284 285 286 286
232 220 209 206 208 214 214 216 220 224 229 230 230 230 238 236 235 239 244 247 251 255 258 261 265 268 270 272 273 276 278 279 280 281 281 281 281 283 285 286 288 289 290 290
227 214 205 200 206 208 212 215 218 221 224 228 229 231 236 238 235 238 244 249 252 255 257 260 264 268 271 274 275 277 279 280 282 282 283 284 286 287 288 289 290 292 292 292
221 207 200 200 202 207 211 213 217 219 224 228 228 228 236 240 240 240 243 248 251 254 259 263 267 270 273 275 276 279 281 282 283 285 286 287 289 289 289 290 292 291 291 292
205 203 199 200 201 207 212 213 216 218 219 222 227 224 235 240 241 243 245 249 254 258 263 268 271 273 276 277 279 280 282 284 286 287 289 289 290 291 291 291 292 293 293 294
196 198 197 196 203 208 212 214 217 218 221 224 229 230 236 242 244 246 249 252 255 259 265 269 271 273 277 279 281 283 284 286 287 289 290 290 291 292 292 293 293 294 295 294
208 196 195 195 202 210 213 215 217 220 224 227 231 234 237 242 246 248 251 254 257 261 266 270 273 275 278 281 282 284 286 287 289 290 290 291 291 292 293 295 294 293 292 291
238 205 196 197 201 209 215 216 219 224 226 230 233 236 238 243 247 252 255 259 262 266 269 272 274 277 279 281 283 286 287 288 288 289 290 292 293 295 294 294 293 291 291 290
248 219 202 204 204 210 216 220 222 226 230 231 236 240 244 248 252 256 260 263 266 269 272 274 276 278 280 283 285 286 286 288 289 291 292 293 293 294 292 290 290 291 292 293
239 181 224 220 215 213 217 221 224 228 234 236 239 244 246 249 253 257 261 265 268 270 273 276 277 280 281 284 286 286 288 290 290 292 292 293 290 291 293 295 295 295 295 295
62 237 222 211 213 224 225 226 229 232 238 242 246 250 252 253 256 260 262 265 269 273 276 279 281 283 284 285 286 288 290 292 293 292 293 294 295 296 298 299 300 298 297 296
356 237 208 214 209 214 226 232 231 234 239 243 247 251 255 258 260 263 267 271 274 277 279 281 282 282 284 286 290 293 293 294 295 295 297 298 298 299 299 298 298 296 296 296
137 137 166 186 208 211 219 226 233 236 239 243 247 250 255 258 263 266 269 273 276 276 277 279 283 286 291 294 294 296 297 300 301 301 302 301 300 299 298 298 298 297 296 294
162 170 156 165 157 172 203 216 224 228 234 240 246 252 256 261 264 266 268 271 274 278 282 289 293 294 295 298 300 303 302 300 301 301 304 302 300 302 306 303 299 298 297 295
219 202 209 229 210 199 198 208 212 221 231 240 246 250 253 257 261 268 273 279 286 291 293 293 296 300 303 306 305 305 304 305 307 307 307 308 308 307 306 302 300 298 298 298
239 241 216 220 216 199 198 198 204 212 206 218 229 242 254 265 272 278 287 290 291 292 295 300 304 305 310 311 309 307 308 311 314 312 310 309 307 306 304 303 302 301 301 301
222 218 215 217 208 195 208 210 211 226 230 240 250 262 272 279 283 286 286 290 294 301 308 307 314 317 315 315 310 314 314 315 315 314 314 311 308 307 306 306 304 304 303 301
222 224 224 216 212 195 208 206 218 232 247 262 270 275 281 285 283 288 300 308 311 312 317 320 321 319 317 317 318 319 318 318 318 318 314 310 309 309 309 307 306 305 304 304
226 227 224 222 210 202 214 227 250 265 271 270 274 281 280 280 298 307 315 315 318 322 320 320 320 320 321 320 322 320 320 320 319 318 315 313 312 312 310 309 309 308 307 308
222 223 223 226 229 231 242 259 263 262 266 275 281 271 283 298 311 315 314 321 320 318 320 322 320 321 323 325 323 323 323 323 320 317 315 314 314 313 314 314 313 312 310 306
220 220 225 229 238 257 255 254 261 270 270 275 260 280 300 313 310 315 324 320 321 322 322 323 322 326 326 327 326 326 324 322 319 318 317 316 315 315 316 316 314 311 310 314
224 224 227 236 239 250 258 267 265 269 259 248 260 297 312 313 319 326 323 323 327 325 326 327 329 330 330 330 329 327 324 322 321 320 318 317 316 317 317 314 313 316 324 328
223 229 231 243 241 254 267 265 266 245 239 240 275 308 315 319 325 329 329 329 331 329 330 330 332 331 330 330 329 327 324 323 322 321 319 318 318 320 317 315 323 333 330 329
Height
10575 10586 10603 10612 10624 10637 10649 10662 10674 10680 10688 10697 10707 10716 10724 10729 10735 10742 10745 10748 10751 10754 10756 10757 10757 10759 10762 10762 10765 10765 10764 10758 10757 10754 10751 10749 10745 10742 10738 10734 10731 10727 10723 10718
10554 10565 10571 10586 10603 10617 10632 10646 10659 10668 10677 10684 10693 10702 10710 10718 10725 10730 10736 10738 10739 10742 10745 10746 10745 10748 10750 10750 10753 10753 10748 10745 10743 10741 10737 10734 10730 10727 10723 10718 10713 10709 10704 10699
10535 10541 10551 10567 10587 10603 10618 10633 10646 10658 10665 10672 10680 10690 10700 10707 10714 10719 10724 10726 10729 10732 10735 10735 10735 10737 10738 10738 10740 10739 10734 10732 10729 10726 10723 10719 10714 10710 10705 10700 10696 10692 10686 10680
10519 10525 10539 10553 10574 10589 10605 10619 10633 10646 10651 10659 10666 10681 10688 10696 10703 10709 10712 10714 10718 10722 10724 10723 10725 10726 10726 10728 10726 10724 10722 10719 10715 10712 10708 10703 10698 10693 10688 10682 10677 10672 10666 10660
10510 10518 10528 10545 10562 10576 10591 10609 10620 10629 10637 10648 10660 10672 10679 10686 10694 10696 10699 10703 10709 10713 10713 10713 10714 10713 10713 10712 10711 10709 10707 10704 10700 10696 10691 10686 10680 10675 10669 10663 10655 10648 10640 10633
10506 10515 10524 10537 10554 10570 10584 10596 10604 10614 10629 10646 10652 10664 10671 10675 10680 10686 10691 10693 10697 10700 10700 10701 10702 10702 10701 10700 10697 10695 10693 10689 10684 10678 10672 10667 10662 10656 10649 10641 10633 10625 10616 10608
10506 10513 10522 10535 10549 10562 10574 10583 10595 10611 10629 10644 10644 10658 10665 10664 10669 10674 10680 10683 10685 10688 10690 10690 10692 10691 10688 10685 10683 10681 10677 10673 10667 10660 10654 10648 10642 10635 10626 10619 10610 10601 10592 10584
10508 10516 10524 10536 10549 10560 10568 10581 10596 10609 10623 10630 10633 10652 10651 10650 10655 10664 10669 10673 10676 10678 10679 10678 10678 10677 10675 10672 10669 10666 10660 10654 10648 10641 10635 10628 10620 10612 10604 10595 10586 10577 10567 10557
10510 10515 10524 10537 10548 10559 10568 10582 10593 10605 10616 10623 10632 10641 10641 10641 10647 10653 10659 10663 10666 10668 10667 10667 10665 10662 10660 10657 10654 10649 10643 10637 10630 10623 10615 10607 10599 10590 10581 10572 10563 10553 10542 10531
10511 10518 10525 10535 10547 10559 10568 10577 10590 10600 10608 10617 10624 10628 10630 10633 10639 10645 10649 10653 10655 10656 10657 10655 10652 10648 10645 10642 10637 10631 10625 10618 10610 10602 10594 10586 10578 10568 10559 10550 10538 10528 10517 10505
10519 10524 10530 10538 10546 10555 10564 10573 10584 10592 10601 10608 10614 10617 10619 10625 10632 10636 10639 10641 10643 10645 10644 10642 10638 10634 10630 10625 10619 10613 10606 10599 10591 10583 10574 10565 10556 10546 10535 10524 10512 10499 10487 10475
10524 10528 10533 10538 10545 10553 10561 10570 10579 10586 10590 10600 10606 10607 10615 10620 10624 10627 10629 10630 10631 10631 10629 10627 10624 10619 10614 10609 10603 10596 10588 10581 10573 10564 10555 10545 10533 10521 10509 10498 10486 10474 10461 10448
10528 10531 10535 10540 10544 10551 10557 10565 10572 10578 10585 10594 10598 10600 10606 10611 10615 10616 10618 10619 10618 10616 10614 10612 10608 10604 10599 10593 10585 10577 10571 10563 10554 10544 10533 10522 10510 10498 10485 10472 10457 10443 10429 10414
10532 10532 10534 10538 10543 10549 10554 10562 10568 10575 10581 10587 10592 10593 10595 10600 10604 10605 10606 10606 10606 10604 10601 10598 10593 10589 10583 10576 10568 10562 10553 10544 10534 10522 10510 10498 10485 10471 10457 10442 10427 10412 10397 10381
10536 10535 10535 10537 10541 10546 10550 10555 10563 10570 10575 10579 10582 10583 10588 10590 10592 10594 10595 10595 10594 10592 10588 10584 10579 10573 10568 10561 10554 10546 10537 10525 10513 10500 10488 10475 10461 10446 10431 10415 10398 10381 10364 10347
10537 10537 10537 10537 10540 10543 10546 10550 10556 10561 10566 10570 10573 10575 10579 10580 10583 10584 10585 10583 10582 10579 10575 10571 10567 10562 10556 10549 10540 10529 10517 10505 10494 10481 10467 10453 10439 10422 10406 10387 10369 10348 10330 10314
10539 10540 10540 10540 10540 10542 10545 10547 10551 10554 10558 10561 10564 10569 10571 10572 10574 10574 10574 10572 10570 10568 10565 10561 10556 10550 10542 10533 10523 10512 10501 10488 10475 10460 10445 10430 10412 10393 10372 10349 10329 10314 10298 10283
10539 10539 10540 10541 10542 10543 10544 10547 10549 10552 10554 10557 10560 10563 10564 10565 10566 10566 10565 10564 10562 10559 10555 10550 10544 10537 10528 10519 10508 10496 10484 10470 10453 10436 10417 10397 10377 10356 10334 10316 10298 10283 10267 10255
10538 10538 10539 10540 10541 10543 10545 10547 10549 10551 10554 10556 10558 10559 10561 10561 10561 10560 10559 10556 10553 10550 10545 10539 10532 10525 10516 10504 10491 10477 10461 10445 10427 10408 10387 10366 10344 10321 10302 10285 10269 10254 10242 10231
10536 10537 10538 10539 10540 10542 10544 10546 10548 10550 10553 10554 10556 10556 10557 10557 10556 10554 10552 10549 10546 10541 10535 10529 10520 10510 10500 10485 10470 10455 10438 10420 10401 10381 10357 10335 10314 10293 10275 10258 10244 10231 10222 10212
10534 10536 10538 10538 10539 10542 10543 10545 10547 10550 10551 10551 10552 10552 10552 10551 10549 10548 10545 10541 10536 10530 10523 10515 10505 10495 10481 10466 10449 10433 10414 10394 10373 10351 10328 10306 10287 10268 10251 10237 10226 10215 10205 10197
10531 10534 10537 10537 10539 10541 10542 10544 10545 10546 10546 10546 10546 10546 10545 10544 10543 10540 10536 10532 10526 10519 10511 10502 10491 10479 10464 10447 10429 10410 10390 10367 10344 10320 10298 10279 10263 10247 10233 10221 10210 10201 10193 10186
10527 10530 10533 10536 10537 10538 10538 10539 10540 10540 10540 10540 10540 10539 10539 10537 10535 10532 10528 10522 10516 10508 10499 10488 10476 10461 10444 10427 10407 10386 10363 10340 10317 10295 10276 10259 10245 10231 10219 10208 10199 10191 10185 10179
10522 10524 10527 10529 10533 10533 10533 10534 10534 10534 10534 10534 10534 10534 10533 10531 10528 10525 10520 10513 10505 10496 10486 10474 10459 10442 10423 10404 10384 10362 10338 10315 10293 10274 10257 10243 10231 10219 10209 10200 10191 10185 10180 10176
10515 10517 10520 10522 10526 10526 10529 10529 10529 10528 10528 10529 10529 10528 10527 10525 10521 10517 10511 10504 10495 10484 10472 10458 10441 10423 10403 10382 10361 10339 10315 10292 10273 10257 10242 10230 10219 10210 10202 10194 10187 10182 10178 10173
10506 10511 10514 10515 10519 10520 10522 10522 10523 10523 10524 10524 10524 10523 10521 10518 10514 10509 10502 10494 10484 10471 10457 10442 10425 10406 10386 10363 10341 10316 10293 10273 10257 10243 10230 10220 10211 10203 10197 10191 10185 10180 10175 10169